User: anonymous   Login
Location: Caltech
(34.1382°N, 118.1253°W)
Time: 19:28:28
(UTC-07:00)
Language:

Iridium 75 - Orbit

View from above orbital plane
View from above orbital plane
View from above satellite
View from above satellite

Ground track
Ground track

The orbit data is extracted from the following two-line orbital elements,

1 25346U 98032E   14304.41724365  .00000441  00000-0  15042-3 0   430
2 25346 086.3954 265.2360 0002185 102.1955 010.1301 14.34224801862102
Epoch (UTC): 31 October 2014 10:00:49
Eccentricity: 0.0002185
inclination: 86.3954°
perigee height: 776 km
apogee height: 779 km
right ascension of ascending node: 265.2360°
argument of perigee: 102.1955°
revolutions per day: 14.34224801
mean anomaly at epoch: 10.1301°
orbit number at epoch: 86210

The dashed part of the orbit path shows where the satellite is in the earth's shadow,  

DLR